| time (UTC) | temp F | wind direction | speed knots | gust knots | rain 1hr in | rain 24hr in | rain mn in | humidity % | barometer mb |
| 20260509162512 | 66 | 329 | 0.9 | 3.5 | 0.00 | 0.00 | 0.00 | 45 | 1014.4 |
| 20260509162010 | 66 | 308 | 1.7 | 2.6 | 0.00 | 0.00 | 0.00 | 46 | 1014.5 |
| 20260509161522 | 65 | 132 | 0.9 | 2.6 | 0.00 | 0.00 | 0.00 | 47 | 1014.5 |
| 20260509161512 | 65 | 132 | 0.9 | 2.6 | 0.00 | 0.00 | 0.00 | 47 | 1014.2 |
| 20260509161003 | 65 | 295 | 0.0 | 2.6 | 0.00 | 0.00 | 0.00 | 47 | 1014.5 |
| 20260509160504 | 64 | 295 | 0.0 | 7.0 | 0.00 | 0.00 | 0.00 | 47 | 1014.6 |
| 20260509160009 | 64 | 278 | 0.9 | 7.0 | 0.00 | 0.00 | 0.00 | 48 | 1014.3 |
| 20260509160007 | 64 | 278 | 0.9 | 7.0 | 0.00 | 0.00 | 0.00 | 48 | 1014.7 |
| 20260509155505 | 64 | 255 | 0.9 | 3.5 | 0.00 | 0.00 | 0.00 | 48 | 1014.7 |
| 20260509155006 | 65 | 264 | 0.9 | 5.2 | 0.00 | 0.00 | 0.00 | 48 | 1014.8 |
| 20260509154515 | 65 | 280 | 1.7 | 8.7 | 0.00 | 0.00 | 0.00 | 47 | 1014.5 |
| 20260509154512 | 65 | 280 | 1.7 | 8.7 | 0.00 | 0.00 | 0.00 | 47 | 1014.9 |
| 20260509154008 | 65 | 360 | 0.9 | 8.7 | 0.00 | 0.00 | 0.00 | 47 | 1014.9 |
| 20260509153507 | 65 | 273 | 5.2 | 7.8 | 0.00 | 0.00 | 0.00 | 47 | 1015.0 |
| 20260509153029 | 64 | 360 | 1.7 | 5.2 | 0.00 | 0.00 | 0.00 | 49 | 1015.1 |
| 20260509153015 | 64 | 360 | 1.7 | 5.2 | 0.00 | 0.00 | 0.00 | 49 | 1014.7 |
| 20260509152508 | 64 | 336 | 1.7 | 4.3 | 0.00 | 0.00 | 0.00 | 48 | 1015.1 |
| 20260509152013 | 64 | 27 | 0.9 | 5.2 | 0.00 | 0.00 | 0.00 | 49 | 1015.2 |
| 20260509151522 | 65 | 327 | 2.6 | 5.2 | 0.00 | 0.00 | 0.00 | 48 | 1014.9 |
| 20260509151006 | 65 | 285 | 1.7 | 7.8 | 0.00 | 0.00 | 0.00 | 48 | 1015.2 |
| 20260509150510 | 66 | 298 | 2.6 | 7.8 | 0.00 | 0.00 | 0.00 | 47 | 1015.4 |
| 20260509150030 | 66 | 165 | 2.6 | 7.0 | 0.00 | 0.00 | 0.00 | 48 | 1015.3 |
| 20260509150022 | 66 | 165 | 2.6 | 7.0 | 0.00 | 0.00 | 0.00 | 48 | 1015.0 |
| 20260509145503 | 65 | 310 | 1.7 | 8.7 | 0.00 | 0.00 | 0.00 | 48 | 1015.4 |
| 20260509145003 | 65 | 232 | 4.3 | 8.7 | 0.00 | 0.00 | 0.00 | 47 | 1015.4 |
| 20260509144522 | 66 | 214 | 0.9 | 7.0 | 0.00 | 0.00 | 0.00 | 47 | 1015.4 |
| 20260509144506 | 66 | 214 | 0.9 | 7.0 | 0.00 | 0.00 | 0.00 | 47 | 1015.0 |
| 20260509144007 | 65 | 148 | 1.7 | 7.0 | 0.00 | 0.00 | 0.00 | 48 | 1015.4 |
| 20260509143506 | 65 | 292 | 2.6 | 7.0 | 0.00 | 0.00 | 0.00 | 49 | 1015.5 |
| 20260509143014 | 64 | 92 | 1.7 | 6.1 | 0.00 | 0.00 | 0.00 | 50 | 1015.1 |
| 20260509143010 | 64 | 92 | 1.7 | 6.1 | 0.00 | 0.00 | 0.00 | 50 | 1015.5 |
| 20260509142508 | 64 | 211 | 1.7 | 6.1 | 0.00 | 0.00 | 0.00 | 49 | 1015.5 |
| 20260509142012 | 64 | 259 | 0.9 | 6.1 | 0.00 | 0.00 | 0.00 | 50 | 1015.6 |
| 20260509141519 | 64 | 288 | 0.0 | 4.3 | 0.00 | 0.00 | 0.00 | 50 | 1015.7 |
| 20260509141517 | 64 | 288 | 0.0 | 4.3 | 0.00 | 0.00 | 0.00 | 50 | 1015.3 |
| 20260509141008 | 65 | 342 | 1.7 | 4.3 | 0.00 | 0.00 | 0.00 | 49 | 1015.7 |
| 20260509140511 | 65 | 302 | 1.7 | 7.0 | 0.00 | 0.00 | 0.00 | 49 | 1015.7 |
| 20260509140023 | 65 | 273 | 1.7 | 7.8 | 0.00 | 0.00 | 0.00 | 50 | 1015.4 |
| 20260509135506 | 65 | 181 | 3.5 | 7.8 | 0.00 | 0.00 | 0.00 | 50 | 1015.8 |
| 20260509135011 | 64 | 191 | 3.5 | 8.7 | 0.00 | 0.00 | 0.00 | 50 | 1015.8 |
| 20260509134543 | 64 | 140 | 3.5 | 9.6 | 0.00 | 0.00 | 0.00 | 50 | 1015.9 |
| 20260509134525 | 64 | 140 | 3.5 | 9.6 | 0.00 | 0.00 | 0.00 | 50 | 1015.5 |
| 20260509134003 | 64 | 190 | 5.2 | 12.2 | 0.00 | 0.00 | 0.00 | 51 | 1015.9 |
| 20260509133507 | 64 | 267 | 2.6 | 12.2 | 0.00 | 0.00 | 0.00 | 52 | 1015.9 |
| 20260509133018 | 63 | 199 | 4.3 | 8.7 | 0.00 | 0.00 | 0.00 | 51 | 1016.0 |
| 20260509133014 | 63 | 199 | 4.3 | 8.7 | 0.00 | 0.00 | 0.00 | 51 | 1015.7 |
| 20260509132508 | 63 | 123 | 2.6 | 7.0 | 0.00 | 0.00 | 0.00 | 52 | 1016.1 |
| 20260509132008 | 64 | 156 | 3.5 | 7.0 | 0.00 | 0.00 | 0.00 | 51 | 1016.2 |
| 20260509131515 | 64 | 234 | 0.9 | 5.2 | 0.00 | 0.00 | 0.00 | 51 | 1016.2 |
| 20260509131011 | 64 | 352 | 1.7 | 5.2 | 0.00 | 0.00 | 0.00 | 51 | 1016.3 |
| 20260509130513 | 64 | 344 | 0.0 | 6.1 | 0.00 | 0.00 | 0.00 | 52 | 1016.4 |
| 20260509130035 | 64 | 211 | 1.7 | 7.8 | 0.00 | 0.00 | 0.00 | 52 | 1016.0 |
| 20260509130020 | 64 | 211 | 1.7 | 7.8 | 0.00 | 0.00 | 0.00 | 52 | 1016.4 |
| 20260509125507 | 63 | 223 | 3.5 | 7.8 | 0.00 | 0.00 | 0.00 | 53 | 1016.5 |
| 20260509125007 | 63 | 298 | 1.7 | 7.0 | 0.00 | 0.00 | 0.00 | 54 | 1016.6 |
| 20260509124525 | 63 | 78 | 1.7 | 7.8 | 0.00 | 0.00 | 0.00 | 53 | 1016.6 |
| 20260509124010 | 64 | 132 | 4.3 | 7.8 | 0.00 | 0.00 | 0.00 | 52 | 1016.7 |
| 20260509123509 | 64 | 199 | 2.6 | 6.1 | 0.00 | 0.00 | 0.00 | 53 | 1016.6 |
| 20260509123026 | 64 | 138 | 2.6 | 7.0 | 0.00 | 0.00 | 0.00 | 52 | 1016.7 |
| 20260509123023 | 64 | 138 | 2.6 | 7.0 | 0.00 | 0.00 | 0.00 | 52 | 1016.3 |
| 20260509122504 | 64 | 171 | 4.3 | 7.0 | 0.00 | 0.00 | 0.00 | 53 | 1016.8 |
| 20260509122011 | 63 | 222 | 3.5 | 9.6 | 0.00 | 0.00 | 0.00 | 54 | 1016.8 |
| 20260509121524 | 63 | 120 | 5.2 | 9.6 | 0.00 | 0.00 | 0.00 | 52 | 1016.8 |
| 20260509121510 | 63 | 120 | 5.2 | 9.6 | 0.00 | 0.00 | 0.00 | 52 | 1016.4 |
| 20260509121006 | 64 | 158 | 0.9 | 7.8 | 0.00 | 0.00 | 0.00 | 55 | 1016.9 |
| 20260509120507 | 64 | 128 | 2.6 | 7.0 | 0.00 | 0.00 | 0.00 | 53 | 1016.9 |
| 20260509120028 | 63 | 355 | 0.0 | 3.5 | 0.00 | 0.00 | 0.00 | 56 | 1016.4 |
| 20260509120019 | 63 | 355 | 0.0 | 3.5 | 0.00 | 0.00 | 0.00 | 56 | 1016.9 |
| 20260509115508 | 62 | 18 | 0.0 | 7.8 | 0.00 | 0.00 | 0.00 | 56 | 1016.9 |
| 20260509115009 | 62 | 78 | 2.6 | 7.8 | 0.00 | 0.00 | 0.00 | 56 | 1017.0 |
| 20260509114532 | 62 | 36 | 2.6 | 7.8 | 0.00 | 0.00 | 0.00 | 57 | 1016.9 |
| 20260509114519 | 62 | 36 | 2.6 | 7.8 | 0.00 | 0.00 | 0.00 | 57 | 1016.5 |
| 20260509114010 | 62 | 128 | 2.6 | 7.8 | 0.00 | 0.00 | 0.00 | 57 | 1017.1 |
| 20260509113510 | 62 | 29 | 2.6 | 7.8 | 0.00 | 0.00 | 0.00 | 57 | 1017.1 |
| 20260509113032 | 62 | 69 | 3.5 | 7.8 | 0.00 | 0.00 | 0.00 | 58 | 1017.2 |
| 20260509113026 | 62 | 69 | 3.5 | 7.8 | 0.00 | 0.00 | 0.00 | 58 | 1016.8 |
| 20260509112509 | 62 | 348 | 0.9 | 7.8 | 0.00 | 0.00 | 0.00 | 56 | 1017.3 |
| 20260509112014 | 63 | 126 | 3.5 | 7.8 | 0.00 | 0.00 | 0.00 | 55 | 1017.3 |
| 20260509111525 | 62 | 57 | 0.9 | 10.4 | 0.00 | 0.00 | 0.00 | 58 | 1017.3 |
| 20260509111509 | 62 | 76 | 0.9 | 10.4 | 0.00 | 0.00 | 0.00 | 58 | 1017.0 |
| 20260509111007 | 62 | 63 | 1.7 | 10.4 | 0.00 | 0.00 | 0.00 | 59 | 1017.3 |
| 20260509110507 | 61 | 118 | 3.5 | 11.3 | 0.00 | 0.00 | 0.00 | 59 | 1017.3 |
| 20260509110013 | 62 | 121 | 3.5 | 11.3 | 0.00 | 0.00 | 0.00 | 57 | 1017.4 |
| 20260509105509 | 62 | 127 | 1.7 | 7.0 | 0.00 | 0.00 | 0.00 | 57 | 1017.5 |
| 20260509105007 | 61 | 121 | 3.5 | 7.0 | 0.00 | 0.00 | 0.00 | 58 | 1017.5 |
| 20260509104534 | 61 | 283 | 1.7 | 7.8 | 0.00 | 0.00 | 0.00 | 58 | 1017.5 |
| 20260509104508 | 61 | 283 | 1.7 | 7.8 | 0.00 | 0.00 | 0.00 | 58 | 1017.3 |
| 20260509104008 | 60 | 136 | 3.5 | 7.8 | 0.00 | 0.00 | 0.00 | 58 | 1017.6 |
| 20260509103509 | 60 | 138 | 4.3 | 8.7 | 0.00 | 0.00 | 0.00 | 61 | 1017.6 |
| 20260509103025 | 60 | 157 | 1.7 | 8.7 | 0.00 | 0.00 | 0.00 | 60 | 1017.6 |
| 20260509103006 | 60 | 157 | 1.7 | 8.7 | 0.00 | 0.00 | 0.00 | 60 | 1017.4 |
| 20260509102510 | 60 | 107 | 1.7 | 7.0 | 0.00 | 0.00 | 0.00 | 62 | 1017.7 |
| 20260509102010 | 60 | 130 | 1.7 | 6.1 | 0.00 | 0.00 | 0.00 | 64 | 1017.7 |
| 20260509101533 | 59 | 61 | 1.7 | 7.0 | 0.00 | 0.00 | 0.00 | 63 | 1017.6 |
| 20260509101508 | 59 | 61 | 1.7 | 7.0 | 0.00 | 0.00 | 0.00 | 63 | 1017.5 |
| 20260509101010 | 60 | 165 | 1.7 | 7.0 | 0.00 | 0.00 | 0.00 | 62 | 1017.7 |
| 20260509100511 | 60 | 122 | 3.5 | 7.0 | 0.00 | 0.00 | 0.00 | 63 | 1017.7 |
| 20260509100014 | 59 | 115 | 2.6 | 6.1 | 0.00 | 0.00 | 0.00 | 68 | 1017.7 |
| 20260509100010 | 59 | 115 | 2.6 | 6.1 | 0.00 | 0.00 | 0.00 | 68 | 1017.5 |
| 20260509095509 | 58 | 65 | 0.9 | 5.2 | 0.00 | 0.00 | 0.00 | 69 | 1017.7 |
| 20260509095004 | 58 | 69 | 2.6 | 5.2 | 0.00 | 0.00 | 0.00 | 67 | 1017.7 |
| 20260509094528 | 58 | 93 | 1.7 | 7.0 | 0.00 | 0.00 | 0.00 | 68 | 1017.7 |
| 20260509094507 | 58 | 93 | 1.7 | 7.0 | 0.00 | 0.00 | 0.00 | 68 | 1017.6 |
| 20260509094007 | 58 | 46 | 2.6 | 7.0 | 0.00 | 0.00 | 0.00 | 68 | 1017.7 |
| 20260509093507 | 58 | 94 | 0.0 | 5.2 | 0.00 | 0.00 | 0.00 | 70 | 1017.8 |
| 20260509093023 | 58 | 67 | 1.7 | 5.2 | 0.00 | 0.00 | 0.00 | 70 | 1017.8 |
| 20260509093010 | 58 | 67 | 1.7 | 5.2 | 0.00 | 0.00 | 0.00 | 70 | 1017.7 |
| 20260509092510 | 57 | 147 | 1.7 | 5.2 | 0.00 | 0.00 | 0.00 | 74 | 1017.9 |
| 20260509092008 | 56 | 5 | 0.0 | 4.3 | 0.00 | 0.00 | 0.00 | 74 | 1017.8 |
| 20260509091536 | 56 | 5 | 1.7 | 6.1 | 0.00 | 0.00 | 0.00 | 75 | 1017.8 |
| 20260509091508 | 56 | 11 | 1.7 | 6.1 | 0.00 | 0.00 | 0.00 | 75 | 1017.7 |
| 20260509091010 | 56 | 46 | 1.7 | 6.1 | 0.00 | 0.00 | 0.00 | 76 | 1017.9 |
| 20260509090510 | 56 | 337 | 1.7 | 5.2 | 0.00 | 0.00 | 0.00 | 76 | 1017.9 |
| 20260509090034 | 56 | 40 | 0.9 | 7.0 | 0.00 | 0.00 | 0.00 | 76 | 1017.9 |
| 20260509090010 | 56 | 38 | 0.9 | 7.0 | 0.00 | 0.00 | 0.00 | 76 | 1017.8 |
| 20260509085509 | 55 | 71 | 1.7 | 7.0 | 0.00 | 0.00 | 0.00 | 76 | 1017.9 |
| 20260509085012 | 56 | 13 | 2.6 | 7.0 | 0.00 | 0.00 | 0.00 | 76 | 1018.0 |
| 20260509084524 | 56 | 53 | 0.9 | 3.5 | 0.00 | 0.00 | 0.00 | 76 | 1017.7 |
| 20260509084522 | 56 | 53 | 0.9 | 3.5 | 0.00 | 0.00 | 0.00 | 76 | 1017.9 |
| 20260509084009 | 56 | 5 | 0.9 | 6.1 | 0.00 | 0.00 | 0.00 | 76 | 1018.0 |
| 20260509083506 | 55 | 108 | 2.6 | 6.1 | 0.00 | 0.00 | 0.00 | 77 | 1018.0 |
| 20260509083021 | 55 | 337 | 0.9 | 6.1 | 0.00 | 0.00 | 0.00 | 78 | 1018.0 |
| 20260509082506 | 55 | 26 | 0.9 | 6.1 | 0.00 | 0.00 | 0.00 | 78 | 1018.0 |
| 20260509082012 | 55 | 61 | 1.7 | 7.0 | 0.00 | 0.00 | 0.00 | 77 | 1018.1 |
| 20260509081527 | 55 | 103 | 2.6 | 7.0 | 0.00 | 0.00 | 0.00 | 77 | 1018.1 |
| 20260509081514 | 55 | 103 | 2.6 | 7.0 | 0.00 | 0.00 | 0.00 | 77 | 1017.9 |
| 20260509081010 | 55 | 123 | 2.6 | 7.0 | 0.00 | 0.00 | 0.00 | 79 | 1018.1 |
| 20260509080509 | 54 | 57 | 1.7 | 8.7 | 0.00 | 0.00 | 0.00 | 81 | 1018.0 |
| 20260509080026 | 53 | 74 | 4.3 | 8.7 | 0.00 | 0.00 | 0.00 | 80 | 1018.0 |
| 20260509080008 | 53 | 107 | 4.3 | 8.7 | 0.00 | 0.00 | 0.00 | 80 | 1017.9 |
| 20260509075510 | 53 | 55 | 4.3 | 7.8 | 0.00 | 0.00 | 0.00 | 80 | 1018.1 |
| 20260509075009 | 53 | 61 | 2.6 | 8.7 | 0.00 | 0.00 | 0.00 | 80 | 1018.1 |
| 20260509074512 | 53 | 45 | 4.3 | 8.7 | 0.00 | 0.00 | 0.00 | 78 | 1018.1 |
| 20260509074006 | 54 | 5 | 1.7 | 7.0 | 0.00 | 0.00 | 0.00 | 79 | 1018.0 |
| 20260509073506 | 54 | 155 | 2.6 | 7.0 | 0.00 | 0.00 | 0.00 | 80 | 1018.0 |
| 20260509073017 | 53 | 105 | 0.9 | 5.2 | 0.00 | 0.00 | 0.00 | 81 | 1018.1 |
| 20260509073012 | 53 | 105 | 0.9 | 5.2 | 0.00 | 0.00 | 0.00 | 81 | 1017.9 |
| 20260509072506 | 53 | 107 | 1.7 | 6.1 | 0.00 | 0.00 | 0.00 | 81 | 1018.1 |
| 20260509072010 | 52 | 98 | 1.7 | 6.1 | 0.00 | 0.00 | 0.00 | 82 | 1018.1 |
| 20260509071525 | 52 | 49 | 4.3 | 6.1 | 0.00 | 0.00 | 0.00 | 81 | 1018.1 |
| 20260509071513 | 52 | 49 | 4.3 | 6.1 | 0.00 | 0.00 | 0.00 | 81 | 1017.9 |
| 20260509071004 | 52 | 60 | 1.7 | 6.1 | 0.00 | 0.00 | 0.00 | 82 | 1018.2 |
| 20260509070503 | 52 | 51 | 2.6 | 6.1 | 0.00 | 0.00 | 0.00 | 82 | 1018.2 |
| 20260509070012 | 52 | 130 | 1.7 | 6.1 | 0.00 | 0.00 | 0.00 | 83 | 1018.0 |
| 20260509070010 | 52 | 126 | 1.7 | 6.1 | 0.00 | 0.00 | 0.00 | 83 | 1018.2 |
| 20260509065502 | 52 | 100 | 2.6 | 6.1 | 0.00 | 0.00 | 0.00 | 83 | 1018.2 |
| 20260509065006 | 52 | 56 | 1.7 | 5.2 | 0.00 | 0.00 | 0.00 | 84 | 1018.2 |
| 20260509064512 | 51 | 117 | 0.9 | 4.3 | 0.00 | 0.00 | 0.00 | 85 | 1018.1 |
| 20260509064508 | 51 | 117 | 0.9 | 4.3 | 0.00 | 0.00 | 0.00 | 85 | 1018.2 |
| 20260509064008 | 51 | 103 | 0.9 | 4.3 | 0.00 | 0.00 | 0.00 | 86 | 1018.2 |
| 20260509063505 | 51 | 96 | 1.7 | 6.1 | 0.00 | 0.00 | 0.00 | 87 | 1018.2 |
| 20260509063025 | 50 | 84 | 1.7 | 6.1 | 0.00 | 0.00 | 0.00 | 87 | 1018.2 |
| 20260509062512 | 50 | 74 | 1.7 | 4.3 | 0.00 | 0.00 | 0.00 | 88 | 1018.0 |
| 20260509062015 | 50 | 117 | 1.7 | 5.2 | 0.00 | 0.00 | 0.00 | 88 | 1018.1 |
| 20260509061518 | 50 | 92 | 0.9 | 5.2 | 0.00 | 0.00 | 0.00 | 89 | 1018.1 |
| 20260509061512 | 50 | 92 | 0.9 | 5.2 | 0.00 | 0.00 | 0.00 | 89 | 1018.0 |
| 20260509061021 | 49 | 59 | 0.9 | 5.2 | 0.00 | 0.00 | 0.00 | 90 | 1018.0 |
| 20260509060507 | 49 | 63 | 1.7 | 5.2 | 0.00 | 0.00 | 0.00 | 90 | 1018.0 |
| 20260509060026 | 48 | 45 | 1.7 | 4.3 | 0.00 | 0.00 | 0.00 | 91 | 1018.0 |
| 20260509060013 | 48 | 45 | 1.7 | 4.3 | 0.00 | 0.00 | 0.00 | 91 | 1017.9 |
| 20260509055503 | 48 | 59 | 1.7 | 4.3 | 0.00 | 0.00 | 0.00 | 91 | 1018.1 |
| 20260509055002 | 48 | 59 | 0.9 | 3.5 | 0.00 | 0.00 | 0.00 | 91 | 1018.0 |
| 20260509054506 | 47 | 49 | 0.0 | 1.7 | 0.00 | 0.00 | 0.00 | 92 | 1018.1 |
| 20260509054006 | 47 | 50 | 0.9 | 3.5 | 0.00 | 0.00 | 0.00 | 92 | 1018.0 |
| 20260509053507 | 47 | 39 | 0.9 | 3.5 | 0.00 | 0.00 | 0.00 | 92 | 1018.0 |
| 20260509053013 | 46 | 59 | 0.0 | 3.5 | 0.00 | 0.00 | 0.00 | 92 | 1017.8 |
| 20260509052507 | 46 | 59 | 0.9 | 3.5 | 0.00 | 0.00 | 0.00 | 92 | 1017.9 |
| 20260509052007 | 46 | 57 | 0.9 | 2.6 | 0.00 | 0.00 | 0.00 | 92 | 1017.9 |
| 20260509051515 | 45 | 57 | 0.9 | 3.5 | 0.00 | 0.00 | 0.00 | 93 | 1017.9 |
| 20260509051512 | 45 | 57 | 0.9 | 3.5 | 0.00 | 0.00 | 0.00 | 93 | 1017.7 |
| 20260509051006 | 45 | 57 | 1.7 | 3.5 | 0.00 | 0.00 | 0.00 | 92 | 1017.9 |
| 20260509050508 | 45 | 61 | 1.7 | 3.5 | 0.00 | 0.00 | 0.00 | 92 | 1017.9 |
| 20260509050022 | 45 | 61 | 1.7 | 3.5 | 0.00 | 0.00 | 0.00 | 92 | 1017.8 |
| 20260509050015 | 45 | 61 | 1.7 | 3.5 | 0.00 | 0.00 | 0.00 | 92 | 1017.6 |
| 20260509045507 | 44 | 55 | 0.9 | 2.6 | 0.00 | 0.00 | 0.00 | 92 | 1017.8 |
| 20260509045010 | 44 | 55 | 0.9 | 2.6 | 0.00 | 0.00 | 0.00 | 92 | 1017.8 |
| 20260509044524 | 44 | 48 | 0.9 | 1.7 | 0.00 | 0.00 | 0.00 | 92 | 1017.8 |
| 20260509044515 | 44 | 48 | 0.9 | 1.7 | 0.00 | 0.00 | 0.00 | 92 | 1017.6 |
| 20260509044007 | 44 | 48 | 0.0 | 1.7 | 0.00 | 0.00 | 0.00 | 92 | 1017.8 |
| 20260509043508 | 44 | 47 | 0.0 | 0.0 | 0.00 | 0.00 | 0.00 | 92 | 1017.8 |
| 20260509043014 | 44 | 47 | 0.0 | 0.0 | 0.00 | 0.00 | 0.00 | 92 | 1017.6 |
| 20260509043010 | 44 | 47 | 0.0 | 0.0 | 0.00 | 0.00 | 0.00 | 92 | 1017.9 |
| 20260509042506 | 44 | 47 | 0.0 | 0.0 | 0.00 | 0.00 | 0.00 | 92 | 1017.9 |
| 20260509042011 | 44 | 47 | 0.0 | 0.9 | 0.00 | 0.00 | 0.00 | 92 | 1017.9 |
| 20260509041516 | 44 | 47 | 0.0 | 0.9 | 0.00 | 0.00 | 0.00 | 92 | 1017.9 |
| 20260509041514 | 44 | 47 | 0.0 | 0.9 | 0.00 | 0.00 | 0.00 | 92 | 1017.6 |
| 20260509041009 | 44 | 47 | 0.0 | 1.7 | 0.00 | 0.00 | 0.00 | 92 | 1017.9 |
| 20260509040511 | 44 | 47 | 0.0 | 1.7 | 0.00 | 0.00 | 0.00 | 92 | 1017.9 |
| 20260509040020 | 44 | 48 | 0.0 | 1.7 | 0.00 | 0.00 | 0.00 | 92 | 1017.9 |
| 20260509040016 | 44 | 48 | 0.0 | 1.7 | 0.00 | 0.00 | 0.00 | 92 | 1017.5 |
| 20260509035513 | 44 | 48 | 0.0 | 2.6 | 0.00 | 0.00 | 0.00 | 92 | 1017.9 |
| 20260509035010 | 44 | 48 | 0.0 | 2.6 | 0.00 | 0.00 | 0.00 | 92 | 1017.9 |
| 20260509034526 | 44 | 47 | 0.9 | 2.6 | 0.00 | 0.00 | 0.00 | 92 | 1017.9 |
| 20260509034518 | 44 | 47 | 0.9 | 2.6 | 0.00 | 0.00 | 0.00 | 92 | 1017.6 |
| 20260509034010 | 44 | 48 | 0.9 | 2.6 | 0.00 | 0.00 | 0.00 | 92 | 1017.9 |
| 20260509033509 | 44 | 47 | 0.9 | 3.5 | 0.00 | 0.00 | 0.00 | 92 | 1017.9 |
| 20260509033026 | 44 | 47 | 1.7 | 3.5 | 0.00 | 0.00 | 0.00 | 92 | 1018.0 |
| 20260509033018 | 44 | 47 | 1.7 | 3.5 | 0.00 | 0.00 | 0.00 | 92 | 1017.5 |
| 20260509032507 | 44 | 51 | 1.7 | 2.6 | 0.00 | 0.00 | 0.00 | 92 | 1018.0 |
| 20260509032005 | 44 | 68 | 0.9 | 3.5 | 0.00 | 0.00 | 0.00 | 91 | 1018.0 |
| 20260509031522 | 44 | 57 | 0.9 | 4.3 | 0.00 | 0.00 | 0.00 | 91 | 1017.6 |
| 20260509031513 | 44 | 57 | 0.9 | 4.3 | 0.00 | 0.00 | 0.00 | 91 | 1018.1 |
| 20260509031010 | 44 | 56 | 1.7 | 4.3 | 0.00 | 0.00 | 0.00 | 91 | 1018.1 |
| 20260509030511 | 44 | 63 | 1.7 | 3.5 | 0.00 | 0.00 | 0.00 | 91 | 1018.2 |
| 20260509030029 | 44 | 50 | 1.7 | 3.5 | 0.00 | 0.00 | 0.00 | 91 | 1017.7 |
| 20260509030018 | 44 | 50 | 1.7 | 3.5 | 0.00 | 0.00 | 0.00 | 91 | 1018.2 |
| 20260509025507 | 44 | 49 | 1.7 | 3.5 | 0.00 | 0.00 | 0.00 | 91 | 1018.2 |
| 20260509025007 | 45 | 49 | 1.7 | 4.3 | 0.00 | 0.00 | 0.00 | 91 | 1018.2 |
| 20260509024520 | 45 | 48 | 2.6 | 4.3 | 0.00 | 0.00 | 0.00 | 90 | 1018.2 |
| 20260509024011 | 45 | 62 | 1.7 | 3.5 | 0.00 | 0.00 | 0.00 | 90 | 1018.3 |
| 20260509023510 | 45 | 56 | 2.6 | 3.5 | 0.00 | 0.00 | 0.00 | 90 | 1018.2 |
| 20260509023028 | 45 | 66 | 1.7 | 3.5 | 0.00 | 0.00 | 0.00 | 90 | 1018.2 |
| 20260509023026 | 45 | 66 | 1.7 | 3.5 | 0.00 | 0.00 | 0.00 | 90 | 1017.8 |
| 20260509022508 | 45 | 62 | 1.7 | 3.5 | 0.00 | 0.00 | 0.00 | 90 | 1018.2 |
| 20260509022011 | 45 | 62 | 1.7 | 3.5 | 0.00 | 0.00 | 0.00 | 90 | 1018.1 |
| 20260509021534 | 45 | 60 | 1.7 | 3.5 | 0.00 | 0.00 | 0.00 | 90 | 1018.1 |
| 20260509021521 | 45 | 60 | 1.7 | 3.5 | 0.00 | 0.00 | 0.00 | 90 | 1017.7 |
| 20260509021009 | 46 | 57 | 0.9 | 4.3 | 0.00 | 0.00 | 0.00 | 90 | 1018.1 |
| 20260509020508 | 46 | 57 | 1.7 | 4.3 | 0.00 | 0.00 | 0.00 | 90 | 1018.1 |
| 20260509020024 | 46 | 57 | 1.7 | 4.3 | 0.00 | 0.00 | 0.00 | 90 | 1018.1 |
| 20260509015507 | 46 | 54 | 2.6 | 5.2 | 0.00 | 0.00 | 0.00 | 90 | 1018.1 |
| 20260509015007 | 46 | 46 | 3.5 | 5.2 | 0.00 | 0.00 | 0.00 | 89 | 1018.1 |
| 20260509014520 | 46 | 63 | 3.5 | 5.2 | 0.00 | 0.00 | 0.00 | 89 | 1018.2 |
| 20260509014518 | 46 | 63 | 3.5 | 5.2 | 0.00 | 0.00 | 0.00 | 89 | 1017.7 |
| 20260509014007 | 46 | 58 | 2.6 | 4.3 | 0.00 | 0.00 | 0.00 | 89 | 1018.2 |
| 20260509013507 | 46 | 53 | 2.6 | 3.5 | 0.00 | 0.00 | 0.00 | 89 | 1018.2 |
| 20260509013036 | 46 | 51 | 1.7 | 3.5 | 0.00 | 0.00 | 0.00 | 89 | 1018.2 |
| 20260509013004 | 46 | 51 | 1.7 | 3.5 | 0.00 | 0.00 | 0.00 | 89 | 1017.8 |
| 20260509012510 | 46 | 55 | 1.7 | 3.5 | 0.00 | 0.00 | 0.00 | 88 | 1018.3 |
| 20260509012009 | 46 | 53 | 1.7 | 3.5 | 0.00 | 0.00 | 0.00 | 88 | 1018.3 |
| 20260509011525 | 47 | 65 | 1.7 | 3.5 | 0.00 | 0.00 | 0.00 | 88 | 1018.4 |
| 20260509011508 | 47 | 65 | 1.7 | 3.5 | 0.00 | 0.00 | 0.00 | 88 | 1017.9 |
| 20260509011009 | 47 | 61 | 1.7 | 3.5 | 0.00 | 0.00 | 0.00 | 88 | 1018.3 |
| 20260509010508 | 47 | 57 | 1.7 | 3.5 | 0.00 | 0.00 | 0.00 | 87 | 1018.3 |
| 20260509010028 | 47 | 61 | 0.0 | 2.6 | 0.00 | 0.00 | 0.00 | 88 | 1018.4 |
| 20260509010012 | 47 | 61 | 0.0 | 2.6 | 0.00 | 0.00 | 0.00 | 88 | 1018.0 |
| 20260509005512 | 47 | 61 | 0.9 | 2.6 | 0.00 | 0.00 | 0.00 | 87 | 1018.4 |
| 20260509005005 | 47 | 62 | 1.7 | 3.5 | 0.00 | 0.00 | 0.00 | 87 | 1018.3 |
| 20260509004519 | 47 | 62 | 1.7 | 3.5 | 0.00 | 0.00 | 0.00 | 87 | 1018.3 |
| 20260509004009 | 47 | 70 | 0.9 | 2.6 | 0.00 | 0.00 | 0.00 | 87 | 1018.3 |
| 20260509003503 | 47 | 69 | 1.7 | 2.6 | 0.00 | 0.00 | 0.00 | 87 | 1018.3 |
| 20260509003003 | 47 | 63 | 0.9 | 3.5 | 0.00 | 0.00 | 0.00 | 87 | 1018.3 |
| 20260509002504 | 47 | 63 | 1.7 | 3.5 | 0.00 | 0.00 | 0.00 | 86 | 1018.2 |
| 20260509002003 | 48 | 74 | 0.9 | 3.5 | 0.00 | 0.00 | 0.00 | 86 | 1018.2 |
| 20260509001509 | 48 | 90 | 0.9 | 4.3 | 0.00 | 0.00 | 0.00 | 86 | 1017.7 |
| 20260509001506 | 48 | 90 | 0.9 | 4.3 | 0.00 | 0.00 | 0.00 | 86 | 1018.2 |
| 20260509001006 | 48 | 71 | 1.7 | 4.3 | 0.00 | 0.00 | 0.00 | 86 | 1018.1 |
| 20260509000503 | 48 | 67 | 1.7 | 4.3 | 0.00 | 0.00 | 0.00 | 86 | 1018.1 |
| 20260509000009 | 48 | 69 | 1.7 | 3.5 | 0.00 | 0.00 | 0.00 | 85 | 1018.1 |
| 20260508235503 | 48 | 63 | 1.7 | 3.5 | 0.00 | 0.00 | 0.00 | 85 | 1018.1 |
| 20260508235007 | 48 | 80 | 1.7 | 5.2 | 0.00 | 0.00 | 0.00 | 85 | 1018.2 |
| 20260508234514 | 48 | 62 | 0.9 | 5.2 | 0.00 | 0.00 | 0.00 | 85 | 1018.2 |
| 20260508234006 | 48 | 98 | 1.7 | 6.1 | 0.00 | 0.00 | 0.00 | 85 | 1018.1 |
| 20260508233506 | 48 | 105 | 1.7 | 6.1 | 0.00 | 0.00 | 0.00 | 84 | 1018.1 |
| 20260508233021 | 48 | 109 | 0.9 | 3.5 | 0.00 | 0.00 | 0.00 | 84 | 1018.2 |
| 20260508232508 | 48 | 98 | 1.7 | 3.5 | 0.00 | 0.00 | 0.00 | 84 | 1018.2 |
| 20260508232003 | 49 | 78 | 0.9 | 3.5 | 0.00 | 0.00 | 0.00 | 84 | 1018.2 |
| 20260508231505 | 49 | 86 | 0.0 | 2.6 | 0.00 | 0.00 | 0.00 | 83 | 1018.3 |
| 20260508231004 | 49 | 86 | 0.0 | 2.6 | 0.00 | 0.00 | 0.00 | 83 | 1018.3 |
| 20260508230504 | 49 | 103 | 0.0 | 3.5 | 0.00 | 0.00 | 0.00 | 83 | 1018.3 |
| 20260508230009 | 49 | 67 | 0.9 | 3.5 | 0.00 | 0.00 | 0.00 | 82 | 1018.0 |
| 20260508225506 | 49 | 81 | 0.9 | 4.3 | 0.00 | 0.00 | 0.00 | 82 | 1018.3 |
| 20260508225008 | 49 | 76 | 1.7 | 4.3 | 0.00 | 0.00 | 0.00 | 82 | 1018.3 |
| 20260508224519 | 49 | 71 | 1.7 | 4.3 | 0.00 | 0.00 | 0.00 | 82 | 1018.3 |
| 20260508224006 | 49 | 62 | 1.7 | 3.5 | 0.00 | 0.00 | 0.00 | 82 | 1018.3 |
| 20260508223506 | 49 | 34 | 0.9 | 3.5 | 0.00 | 0.00 | 0.00 | 81 | 1018.3 |
| 20260508223021 | 50 | 98 | 0.9 | 4.3 | 0.00 | 0.00 | 0.00 | 81 | 1018.2 |
| 20260508222507 | 50 | 67 | 0.9 | 4.3 | 0.00 | 0.00 | 0.00 | 81 | 1018.2 |
| 20260508222009 | 50 | 80 | 0.9 | 5.2 | 0.00 | 0.00 | 0.00 | 81 | 1018.3 |
| 20260508221522 | 50 | 130 | 1.7 | 5.2 | 0.00 | 0.00 | 0.00 | 80 | 1018.2 |
| 20260508221010 | 50 | 87 | 0.9 | 5.2 | 0.00 | 0.00 | 0.00 | 80 | 1018.3 |
| 20260508220504 | 50 | 64 | 1.7 | 5.2 | 0.00 | 0.00 | 0.00 | 80 | 1018.3 |
| 20260508220006 | 50 | 78 | 1.7 | 4.3 | 0.00 | 0.00 | 0.00 | 79 | 1018.3 |
| 20260508215503 | 50 | 89 | 1.7 | 4.3 | 0.00 | 0.00 | 0.00 | 79 | 1018.3 |
| 20260508215005 | 51 | 51 | 1.7 | 6.1 | 0.00 | 0.00 | 0.00 | 79 | 1018.3 |
| 20260508214522 | 51 | 104 | 1.7 | 6.1 | 0.00 | 0.00 | 0.00 | 78 | 1018.3 |
| 20260508214005 | 51 | 132 | 1.7 | 4.3 | 0.00 | 0.00 | 0.00 | 78 | 1018.2 |
| 20260508213503 | 51 | 121 | 0.9 | 4.3 | 0.00 | 0.00 | 0.00 | 78 | 1018.2 |
| 20260508213022 | 51 | 67 | 1.7 | 4.3 | 0.00 | 0.00 | 0.00 | 77 | 1017.9 |
| 20260508213011 | 51 | 67 | 1.7 | 4.3 | 0.00 | 0.00 | 0.00 | 77 | 1018.1 |
| 20260508212508 | 51 | 52 | 1.7 | 4.3 | 0.00 | 0.00 | 0.00 | 77 | 1018.2 |
| 20260508212010 | 51 | 90 | 0.9 | 4.3 | 0.00 | 0.00 | 0.00 | 77 | 1018.2 |
| 20260508211533 | 52 | 77 | 1.7 | 6.1 | 0.00 | 0.00 | 0.00 | 76 | 1018.2 |
| 20260508211518 | 52 | 77 | 1.7 | 6.1 | 0.00 | 0.00 | 0.00 | 76 | 1017.9 |
| 20260508211009 | 52 | 66 | 1.7 | 6.1 | 0.00 | 0.00 | 0.00 | 76 | 1018.2 |
| 20260508210507 | 52 | 71 | 1.7 | 7.0 | 0.00 | 0.00 | 0.00 | 76 | 1018.1 |
| 20260508210026 | 52 | 71 | 2.6 | 7.0 | 0.00 | 0.00 | 0.00 | 75 | 1018.1 |
| 20260508205512 | 52 | 54 | 2.6 | 6.1 | 0.00 | 0.00 | 0.00 | 75 | 1018.0 |
| 20260508205010 | 52 | 77 | 2.6 | 7.0 | 0.00 | 0.00 | 0.00 | 74 | 1018.0 |
| 20260508204532 | 53 | 71 | 2.6 | 7.0 | 0.00 | 0.00 | 0.00 | 74 | 1017.8 |
| 20260508204508 | 53 | 92 | 2.6 | 7.0 | 0.00 | 0.00 | 0.00 | 74 | 1018.0 |
| 20260508204005 | 53 | 53 | 2.6 | 6.1 | 0.00 | 0.00 | 0.00 | 74 | 1018.1 |
| 20260508203504 | 53 | 69 | 1.7 | 5.2 | 0.00 | 0.00 | 0.00 | 73 | 1018.1 |
| 20260508203012 | 53 | 43 | 1.7 | 4.3 | 0.00 | 0.00 | 0.00 | 73 | 1017.7 |
| 20260508203010 | 53 | 43 | 1.7 | 4.3 | 0.00 | 0.00 | 0.00 | 73 | 1018.1 |
| 20260508202505 | 53 | 78 | 1.7 | 4.3 | 0.00 | 0.00 | 0.00 | 73 | 1018.2 |
| 20260508202006 | 53 | 83 | 2.6 | 5.2 | 0.00 | 0.00 | 0.00 | 72 | 1018.1 |
| 20260508201519 | 54 | 93 | 2.6 | 5.2 | 0.00 | 0.00 | 0.00 | 72 | 1017.7 |
| 20260508201516 | 54 | 93 | 2.6 | 5.2 | 0.00 | 0.00 | 0.00 | 72 | 1018.1 |
| 20260508201011 | 54 | 82 | 1.7 | 4.3 | 0.00 | 0.00 | 0.00 | 71 | 1018.1 |
| 20260508200508 | 54 | 53 | 1.7 | 6.1 | 0.00 | 0.00 | 0.00 | 71 | 1018.0 |
| 20260508200022 | 54 | 68 | 2.6 | 6.1 | 0.00 | 0.00 | 0.00 | 70 | 1017.9 |
| 20260508195510 | 55 | 77 | 2.6 | 6.1 | 0.00 | 0.00 | 0.00 | 70 | 1017.9 |
| 20260508195007 | 55 | 53 | 1.7 | 3.5 | 0.00 | 0.00 | 0.00 | 69 | 1017.9 |
| 20260508194532 | 55 | 71 | 1.7 | 4.3 | 0.00 | 0.00 | 0.00 | 69 | 1017.8 |
| 20260508194514 | 55 | 71 | 1.7 | 4.3 | 0.00 | 0.00 | 0.00 | 69 | 1017.6 |
| 20260508194011 | 55 | 82 | 1.7 | 4.3 | 0.00 | 0.00 | 0.00 | 68 | 1017.8 |
| 20260508193507 | 55 | 71 | 0.9 | 3.5 | 0.00 | 0.00 | 0.00 | 68 | 1017.8 |
| 20260508193017 | 56 | 86 | 1.7 | 3.5 | 0.00 | 0.00 | 0.00 | 67 | 1017.5 |
| 20260508193010 | 56 | 86 | 1.7 | 3.5 | 0.00 | 0.00 | 0.00 | 67 | 1017.8 |
| 20260508192506 | 56 | 78 | 1.7 | 3.5 | 0.00 | 0.00 | 0.00 | 67 | 1017.8 |
| 20260508192004 | 56 | 61 | 0.9 | 6.1 | 0.00 | 0.00 | 0.00 | 66 | 1017.7 |
| 20260508191514 | 56 | 97 | 0.9 | 6.1 | 0.00 | 0.00 | 0.00 | 66 | 1017.5 |
| 20260508191511 | 56 | 97 | 0.9 | 6.1 | 0.00 | 0.00 | 0.00 | 66 | 1017.7 |
| 20260508191003 | 57 | 88 | 1.7 | 6.1 | 0.00 | 0.00 | 0.00 | 65 | 1017.6 |
| 20260508190511 | 57 | 98 | 0.9 | 6.1 | 0.00 | 0.00 | 0.00 | 65 | 1017.5 |
| 20260508190017 | 57 | 109 | 0.9 | 6.1 | 0.00 | 0.00 | 0.00 | 65 | 1017.3 |
| 20260508185507 | 57 | 113 | 0.9 | 6.1 | 0.00 | 0.00 | 0.00 | 64 | 1017.4 |
| 20260508185007 | 57 | 129 | 1.7 | 6.1 | 0.00 | 0.00 | 0.00 | 64 | 1017.4 |
| 20260508184521 | 58 | 5 | 1.7 | 4.3 | 0.00 | 0.00 | 0.00 | 63 | 1017.4 |
| 20260508184519 | 58 | 5 | 1.7 | 4.3 | 0.00 | 0.00 | 0.00 | 63 | 1017.1 |
| 20260508184011 | 58 | 22 | 1.7 | 7.8 | 0.00 | 0.00 | 0.00 | 63 | 1017.4 |
| 20260508183508 | 58 | 23 | 1.7 | 7.8 | 0.00 | 0.00 | 0.00 | 62 | 1017.3 |
| 20260508183026 | 58 | 89 | 2.6 | 7.8 | 0.00 | 0.00 | 0.00 | 62 | 1017.3 |
| 20260508183024 | 58 | 89 | 2.6 | 7.8 | 0.00 | 0.00 | 0.00 | 62 | 1017.0 |
| 20260508182510 | 58 | 180 | 2.6 | 7.8 | 0.00 | 0.00 | 0.00 | 61 | 1017.3 |
| 20260508182010 | 59 | 72 | 4.3 | 7.8 | 0.00 | 0.00 | 0.00 | 60 | 1017.2 |
| 20260508181514 | 59 | 316 | 2.6 | 10.4 | 0.00 | 0.00 | 0.00 | 60 | 1016.8 |
| 20260508181509 | 59 | 316 | 2.6 | 10.4 | 0.00 | 0.00 | 0.00 | 60 | 1017.2 |
| 20260508181007 | 59 | 71 | 3.5 | 10.4 | 0.00 | 0.00 | 0.00 | 60 | 1017.2 |
| 20260508180509 | 59 | 112 | 3.5 | 8.7 | 0.00 | 0.00 | 0.00 | 59 | 1017.2 |
| 20260508180014 | 59 | 117 | 3.5 | 8.7 | 0.00 | 0.00 | 0.00 | 59 | 1016.6 |
| 20260508175507 | 60 | 188 | 2.6 | 8.7 | 0.00 | 0.00 | 0.00 | 58 | 1017.0 |
| 20260508175010 | 60 | 68 | 2.6 | 7.8 | 0.00 | 0.00 | 0.00 | 58 | 1017.0 |
| 20260508174519 | 60 | 82 | 1.7 | 9.6 | 0.00 | 0.00 | 0.00 | 58 | 1016.4 |
| 20260508174008 | 60 | 55 | 6.1 | 9.6 | 0.00 | 0.00 | 0.00 | 57 | 1016.9 |
| 20260508173510 | 60 | 99 | 2.6 | 8.7 | 0.00 | 0.00 | 0.00 | 57 | 1016.9 |
| 20260508173034 | 60 | 58 | 3.5 | 8.7 | 0.00 | 0.00 | 0.00 | 57 | 1016.3 |
| 20260508173024 | 60 | 58 | 3.5 | 8.7 | 0.00 | 0.00 | 0.00 | 57 | 1016.8 |
| 20260508172512 | 60 | 97 | 3.5 | 7.8 | 0.00 | 0.00 | 0.00 | 57 | 1016.8 |
| 20260508172012 | 60 | 84 | 2.6 | 9.6 | 0.00 | 0.00 | 0.00 | 57 | 1016.7 |
| 20260508171532 | 61 | 111 | 4.3 | 9.6 | 0.00 | 0.00 | 0.00 | 56 | 1016.2 |
| 20260508171509 | 61 | 108 | 4.3 | 9.6 | 0.00 | 0.00 | 0.00 | 56 | 1016.7 |
| 20260508171002 | 60 | 93 | 1.7 | 7.8 | 0.00 | 0.00 | 0.00 | 57 | 1016.6 |
| 20260508170510 | 60 | 139 | 2.6 | 10.4 | 0.00 | 0.00 | 0.00 | 57 | 1016.6 |
| 20260508170010 | 60 | 140 | 2.6 | 10.4 | 0.00 | 0.00 | 0.00 | 57 | 1016.6 |
| 20260508165507 | 60 | 111 | 4.3 | 12.2 | 0.00 | 0.00 | 0.00 | 57 | 1016.6 |
| 20260508165006 | 60 | 71 | 6.1 | 12.2 | 0.00 | 0.00 | 0.00 | 57 | 1016.5 |
| 20260508164517 | 60 | 17 | 3.5 | 11.3 | 0.00 | 0.00 | 0.00 | 58 | 1016.1 |
| 20260508164506 | 60 | 46 | 3.5 | 11.3 | 0.00 | 0.00 | 0.00 | 57 | 1016.6 |
| 20260508164004 | 60 | 71 | 4.3 | 11.3 | 0.00 | 0.00 | 0.00 | 58 | 1016.6 |
| 20260508163503 | 60 | 74 | 4.3 | 11.3 | 0.00 | 0.00 | 0.00 | 58 | 1016.6 |
| 20260508163022 | 60 | 20 | 2.6 | 11.3 | 0.00 | 0.00 | 0.00 | 59 | 1016.2 |
| 20260508163008 | 60 | 71 | 2.6 | 11.3 | 0.00 | 0.00 | 0.00 | 59 | 1016.6 |